Faith, SD

4:29 PM MDT on September 24, 2017 (GMT -0600)
Faith

Weather History for KD07 - March, 2013

Change the Weather History Date:

Tuesday, March 5, 2013

  Actual Average Record
Temperature  
Mean Temperature 17 °F 29 °F  
Max Temperature 24 °F 39 °F 72 °F (2016)
Min Temperature 9 °F 19 °F -3 °F (2015)
Degree Days  
Heating Degree Days 48 36  
Month to date heating degree days 171 185  
Since 1 July heating degree days 5514 5873  
Cooling Degree Days 0 0  
Month to date cooling degree days 0 0  
Year to date cooling degree days 0 0  
Moisture  
Dew Point 11 °F    
Average Humidity 80    
Maximum Humidity 88    
Minimum Humidity 71    
Precipitation  
Precipitation 0.00 in 0.02 in 0.02 in (2009)
Month to date precipitation 0.08 0.08  
Year to date precipitation 0.65 0.70  
Sea Level Pressure  
Sea Level Pressure 30.45 in    
Wind  
Wind Speed 14 mph (North)    
Max Wind Speed 33 mph    
Max Gust Speed 40 mph    
T = Trace of Precipitation, MM = Missing Value Source: NWS Daily Summary

Daily Weather History Graph

Daily Weather History Graph

Search for Another Location

Airport or City:

Trip Planner

Search our weather history database for the weather conditions in past years. The results will help you decide how hot, cold, wet, or windy it might be!

Date:

Astronomy

Mar. 05, 2013 Rise Set
Actual Time 6:18 AM MST 5:41 PM MST
Civil Twilight 5:49 AM MST 6:10 PM MST
Nautical Twilight 5:15 AM MST 6:44 PM MST
Astronomical Twilight 4:40 AM MST 7:18 PM MST
Moon 1:44 AM MST (3/5) 11:10 AM MST (3/5)
Length of Visible Light 12h 21m
Length of Day
11h 23m
Last Quarter, 40% of the Moon is Illuminated
Mar 5
Last Quarter
Mar 11
New
Mar 19
First Quarter
Mar 27
Full
Apr 2
Last Quarter

Hourly Weather History & Observations

Time (MST) Temp. Windchill Dew Point Humidity Pressure Visibility Wind Dir Wind Speed Gust Speed Precip Events Conditions
1:56 AM 12.0 °F -8.8 °F 7.0 °F 80% 30.34 in - NW 27.6 mph 36.8 mph N/A   Unknown
2:56 AM 10.9 °F -9.2 °F 7.0 °F 84% 30.39 in - NW 24.2 mph 35.7 mph N/A   Unknown
3:56 AM 10.0 °F -9.5 °F 6.1 °F 84% 30.41 in - NNW 21.9 mph 29.9 mph N/A   Unknown
4:56 AM 10.0 °F -11.5 °F 5.0 °F 80% 30.42 in - NNW 27.6 mph 35.7 mph N/A   Unknown
5:56 AM 9.0 °F -7.9 °F 5.0 °F 84% 30.46 in - NW 15.0 mph - N/A   Unknown
6:56 AM 10.0 °F -5.9 °F 6.1 °F 84% 30.47 in - NNW 13.8 mph - N/A   Unknown
7:56 AM 12.9 °F -3.9 °F 8.1 °F 81% 30.50 in - NW 17.3 mph - N/A   Unknown
8:56 AM 14.0 °F -0.8 °F 9.0 °F 80% 30.51 in - NW 13.8 mph 21.9 mph N/A   Unknown
9:56 AM 16.0 °F 3.6 °F 10.0 °F 77% 30.51 in - NW 10.4 mph - N/A   Unknown
10:56 AM 18.0 °F 4.8 °F 10.9 °F 74% 30.51 in - NNW 12.7 mph 20.7 mph N/A   Unknown
11:56 AM 19.0 °F 5.6 °F 12.0 °F 74% 30.50 in - NNW 13.8 mph - N/A   Unknown
12:56 PM 21.0 °F 8.6 °F 14.0 °F 74% 30.48 in - North 12.7 mph - N/A   Unknown
1:56 PM 23.0 °F 10.1 °F 16.0 °F 74% 30.46 in - North 15.0 mph - N/A   Unknown
2:56 PM 23.0 °F 13.1 °F 16.0 °F 74% 30.45 in - NNE 9.2 mph - N/A   Unknown
3:56 PM 23.0 °F 12.4 °F 15.1 °F 72% 30.45 in - NE 10.4 mph - N/A   Unknown
4:56 PM 21.0 °F 12.4 °F 15.1 °F 78% 30.45 in - ENE 6.9 mph - N/A   Unknown
5:56 PM 18.0 °F 11.1 °F 14.0 °F 84% 30.45 in - SE 4.6 mph - N/A   Unknown
6:56 PM 18.0 °F 9.8 °F 12.9 °F 81% 30.48 in - ESE 5.8 mph - N/A   Unknown
7:56 PM 16.0 °F 7.4 °F 12.9 °F 88% 30.45 in - ESE 5.8 mph - N/A   Unknown
8:56 PM 15.1 °F 5.2 °F 12.0 °F 88% 30.45 in - East 6.9 mph - N/A   Unknown
9:56 PM 15.1 °F 4.2 °F 12.0 °F 88% 30.44 in - ESE 8.1 mph - N/A   Unknown
10:56 PM 15.1 °F 1.8 °F 10.9 °F 84% 30.43 in - SE 11.5 mph - N/A   Unknown
11:56 PM 14.0 °F -0.2 °F 10.9 °F 88% 30.41 in - SE 12.7 mph - N/A   Unknown